Flag Weather past 2 weeks in Düren, North Rhine-Westphalia, Germany

Now
43 °F

Partly cloudy.


Feels Like: 40 °F
Forecast: 40 / 51 °F
Wind: 5 mph from East

Location: Noervenich

Current Time: Nov 28, 2014 at 12:23:30 AM

Latest Report: Nov 27, 2014 at 11:20 PM


Visibility: N/A

Pressure: 29.74 "Hg

Humidity: 87%

Dew point: 39 °F

Location of DürenLocation

Historic Weather in Düren — Graph

°F

Düren temperature yesterday

Maximum temperature yesterday: 45 °F (at 11:20 AM)
Minimum temperature yesterday: 41 °F (at 12:20 AM)
Average temperature yesterday: 43 °F

Past Weeks' High & Low Weather Summary

 TemperatureHumidityPressure
High55 °F (Nov 14, 12:20 PM)100% (Nov 12, 11:20 PM)30.33 "Hg (Nov 12, 11:20 PM)
Low28 °F (Nov 25, 4:20 AM)66% (Nov 21, 1:20 PM)29.53 "Hg (Nov 16, 1:20 PM)
Average45 °F89%29.94 "Hg
* Reported Nov 12 10:20 PM — Nov 27 10:20 PM, Düren, Weather by CustomWeather, © 2014

Note: Actual official high and low records may vary slightly from our data, if they occured in-between our weather recording intervals... More about our weather records

Advertising

Düren weather history for previous 24 hours

 ConditionsComfort  
Time TempWeatherWind HumidityBarometerVisibility
10:20 PM
Nov 27
43 °FPartly cloudy.7 mph87%29.74 "HgN/A
9:20 PM43 °FPartly cloudy.7 mph87%29.74 "HgN/A
8:20 PM43 °FPartly cloudy.7 mph93%29.74 "HgN/A
7:20 PM43 °FDrizzle. Fog.6 mph93%29.74 "Hg3 mi
6:20 PM43 °FPartly cloudy.7 mph93%29.71 "Hg5 mi
5:20 PM43 °FPartly cloudy.8 mph93%29.74 "Hg4 mi
4:20 PM43 °FDrizzle. Fog.7 mph93%29.71 "Hg3 mi
3:20 PM45 °FDrizzle. Partly sunny.7 mph87%29.74 "Hg4 mi
2:20 PM45 °FDrizzle. Partly sunny.6 mph87%29.74 "Hg4 mi
1:48 PM45 °FDrizzle. Partly sunny.7 mph87%29.74 "Hg4 mi
1:20 PM45 °FDrizzle. Partly sunny.6 mph87%29.74 "Hg5 mi
12:20 PM45 °FLight rain. Partly sunny.6 mph81%29.77 "Hg6 mi
11:20 AM45 °FBroken clouds.7 mph81%29.77 "Hg5 mi
10:20 AM43 °FBroken clouds.6 mph87%29.77 "Hg5 mi
9:20 AM43 °FBroken clouds.5 mph87%29.80 "Hg5 mi
8:20 AM43 °FPartly sunny.6 mph81%29.80 "Hg6 mi
7:20 AM43 °FPartly cloudy.5 mph87%29.80 "HgN/A
6:20 AM41 °FPassing clouds.5 mph87%29.80 "HgN/A
5:20 AM41 °FPassing clouds.5 mph93%29.80 "HgN/A
4:20 AM43 °FPassing clouds.5 mph87%29.80 "HgN/A
3:20 AM41 °FPassing clouds.5 mph93%29.83 "HgN/A
2:20 AM41 °FPassing clouds.6 mph93%29.83 "HgN/A
1:20 AM41 °FPassing clouds.5 mph93%29.86 "HgN/A
12:20 AM41 °FPassing clouds.7 mph93%29.89 "HgN/A
Weather by CustomWeather, © 2014

See weather overviewHow to use our weather pages